Satellite: CO-57
Catalog number: 27848
Epoch time:      09231.50655547
Element set:    0598
Inclination:      098.7166 deg
RA of node:       238.8432 deg
Eccentricity:    0.0009540
Arg of perigee:   331.3101 deg
Mean anomaly:     028.7549 deg
Mean motion:   14.20451999 rev/day
Decay rate:        1.8e-07 rev/day^2
Epoch rev:           31821
Checksum:              326

Satellite: AO-51
Catalog number: 28375
Epoch time:      09232.55636497
Element set:     465
Inclination:      098.0531 deg
RA of node:       238.4104 deg
Eccentricity:    0.0083652
Arg of perigee:   290.6047 deg
Mean anomaly:     068.6188 deg
Mean motion:   14.40649734 rev/day
Decay rate:       -1.0e-08 rev/day^2
Epoch rev:           27022
Checksum:              313

Satellite: CO-56
Catalog number: 28941
Epoch time:      09232.78036428
Element set:     365
Inclination:      098.1374 deg
RA of node:       059.8092 deg
Eccentricity:    0.0065826
Arg of perigee:   245.2344 deg
Mean anomaly:     114.2180 deg
Mean motion:   15.92685012 rev/day
Decay rate:     7.7689e-04 rev/day^2
Epoch rev:           19750
Checksum:              342

Satellite: GENESAT1
Catalog number: 29655
Epoch time:      09232.83435070
Element set:     786
Inclination:      040.0228 deg
RA of node:       137.8714 deg
Eccentricity:    0.0004693
Arg of perigee:   272.5258 deg
Mean anomaly:     087.5058 deg
Mean motion:   15.66828389 rev/day
Decay rate:      8.223e-05 rev/day^2
Epoch rev:           15261
Checksum:              322

Satellite: CP3
Catalog number: 31129
Epoch time:      09232.59804067
Element set:     139
Inclination:      097.9839 deg
RA of node:       282.5745 deg
Eccentricity:    0.0103577
Arg of perigee:   085.6637 deg
Mean anomaly:     275.6391 deg
Mean motion:   14.52155861 rev/day
Decay rate:        3.1e-07 rev/day^2
Epoch rev:           12423
Checksum:              320

Satellite: CO-65
Catalog number: 32785
Epoch time:      09232.89614360
Element set:     450
Inclination:      097.9402 deg
RA of node:       296.3128 deg
Eccentricity:    0.0015015
Arg of perigee:   176.6056 deg
Mean anomaly:     183.5261 deg
Mean motion:   14.81509662 rev/day
Decay rate:       1.56e-06 rev/day^2
Epoch rev:            7102
Checksum:              303

Satellite: KKS-1
Catalog number: 33493
Epoch time:      09232.77001209
Element set:     678
Inclination:      098.0611 deg
RA of node:       345.2777 deg
Eccentricity:    0.0020902
Arg of perigee:   035.9792 deg
Mean anomaly:     324.2821 deg
Mean motion:   14.80715588 rev/day
Decay rate:       1.73e-06 rev/day^2
Epoch rev:            3102
Checksum:              290

Satellite: SOHLA-1
Catalog number: 33496
Epoch time:      09232.73556454
Element set:     642
Inclination:      098.0417 deg
RA of node:       341.0506 deg
Eccentricity:    0.0007906
Arg of perigee:   078.6659 deg
Mean anomaly:     281.5439 deg
Mean motion:   14.69443405 rev/day
Decay rate:       -4.0e-08 rev/day^2
Epoch rev:            3075
Checksum:              308

/EX
SB KEPS @ AMSAT  $ORB09232.W
Orbital Elements  09232.WEATHER

HR AMSAT ORBITAL ELEMENTS FOR WEATHER SATELLITES
FROM WA5QGD FORT WORTH,TX August 20, 2009
Send Subscribe/unsubscribe to KEPS at 
http://www.amsat.org/mailman/listinfo/keps
BID: ORB09232.W
TO ALL RADIO AMATEURS BT

Satellite: NOAA-10
Catalog number: 16969
Epoch time:      09231.59558919
Element set:    0730
Inclination:      098.6902 deg
RA of node:       257.8914 deg
Eccentricity:    0.0012712
Arg of perigee:   015.9805 deg
Mean anomaly:     344.1772 deg
Mean motion:   14.27392357 rev/day
Decay rate:        7.0e-08 rev/day^2
Epoch rev:           19255
Checksum:              331

Satellite: NOAA-11
Catalog number: 19531
Epoch time:      09231.78100757
Element set:    0747
Inclination:      098.7834 deg
RA of node:       320.7508 deg
Eccentricity:    0.0010839
Arg of perigee:   289.3686 deg
Mean anomaly:     070.6312 deg
Mean motion:   14.14901810 rev/day
Decay rate:        8.1e-07 rev/day^2
Epoch rev:           07851
Checksum:              305

Satellite: NOAA-12
Catalog number: 21263
Epoch time:      09231.97683446
Element set:    0264
Inclination:      098.7738 deg
RA of node:       240.0700 deg
Eccentricity:    0.0012108
Arg of perigee:   326.1697 deg
Mean anomaly:     033.8709 deg
Mean motion:   14.25589597 rev/day
Decay rate:        2.5e-07 rev/day^2
Epoch rev:           94948
Checksum:              329

Satellite: MET-3/5
Catalog number: 21655
Epoch time:      09232.79894808
Element set:     642
Inclination:      082.5573 deg
RA of node:       160.8609 deg
Eccentricity:    0.0014558
Arg of perigee:   024.2337 deg
Mean anomaly:     335.9466 deg
Mean motion:   13.17020339 rev/day
Decay rate:        5.1e-07 rev/day^2
Epoch rev:           86613
Checksum:              318

Satellite: MET-2/21
Catalog number: 22782
Epoch time:      09231.81550834
Element set:    0543
Inclination:      082.5500 deg
RA of node:       131.5487 deg
Eccentricity:    0.0022539
Arg of perigee:   164.4994 deg
Mean anomaly:     195.6865 deg
Mean motion:   13.83638941 rev/day
Decay rate:       -8.8e-07 rev/day^2
Epoch rev:           80640
Checksum:              326

